TimeCDT,TemperatureF,Dew PointF,Humidity,Sea Level PressureIn,VisibilityMPH,Wind Direction,Wind SpeedMPH,Gust SpeedMPH,PrecipitationIn,Events,Conditions,WindDirDegrees,DateUTC
12:53 AM,73.0,69.1,87,30.04,10.0,Calm,Calm,-,N/A,,Clear,0,2013-08-28 05:53:00
1:53 AM,77.0,66.9,71,30.03,10.0,SW,5.8,-,N/A,,Clear,220,2013-08-28 06:53:00
2:53 AM,72.0,66.9,84,30.03,10.0,Calm,Calm,-,N/A,,Clear,0,2013-08-28 07:53:00
3:53 AM,75.0,66.0,73,30.02,10.0,SW,5.8,-,N/A,,Clear,230,2013-08-28 08:53:00
4:53 AM,73.9,66.9,79,30.04,10.0,WSW,4.6,-,N/A,,Clear,240,2013-08-28 09:53:00
5:53 AM,73.9,66.0,76,30.05,10.0,Calm,Calm,-,N/A,,Clear,0,2013-08-28 10:53:00
6:53 AM,73.0,66.9,81,30.07,10.0,SSW,3.5,-,N/A,,Clear,210,2013-08-28 11:53:00
7:53 AM,77.0,68.0,74,30.08,10.0,SW,4.6,-,N/A,,Clear,220,2013-08-28 12:53:00
8:53 AM,82.0,68.0,62,30.07,10.0,WSW,8.1,-,N/A,,Clear,240,2013-08-28 13:53:00
9:53 AM,87.1,66.9,51,30.08,10.0,West,9.2,-,N/A,,Clear,270,2013-08-28 14:53:00
10:53 AM,90.0,66.9,46,30.07,10.0,West,8.1,-,N/A,,Clear,280,2013-08-28 15:53:00
11:53 AM,91.0,69.1,48,30.06,10.0,West,8.1,-,N/A,,Clear,270,2013-08-28 16:53:00
12:53 PM,91.9,69.1,47,30.05,10.0,WNW,4.6,-,N/A,,Clear,290,2013-08-28 17:53:00
1:53 PM,91.9,66.9,44,30.04,10.0,WSW,4.6,-,N/A,,Clear,240,2013-08-28 18:53:00
2:53 PM,93.9,64.0,37,30.03,10.0,Variable,3.5,-,N/A,,Scattered Clouds,0,2013-08-28 19:53:00
3:53 PM,91.9,66.9,44,30.01,10.0,Calm,Calm,-,N/A,,Mostly Cloudy,0,2013-08-28 20:53:00
4:53 PM,93.0,68.0,44,30.01,10.0,Calm,Calm,-,N/A,,Clear,0,2013-08-28 21:53:00
5:53 PM,91.9,69.1,47,30.00,10.0,ESE,5.8,-,N/A,,Clear,110,2013-08-28 22:53:00
6:53 PM,89.1,70.0,53,30.00,10.0,South,5.8,-,N/A,,Clear,170,2013-08-28 23:53:00
7:48 PM,84.2,69.8,62,30.01,10.0,SSW,4.6,-,N/A,,Scattered Clouds,210,2013-08-29 00:48:00
7:53 PM,84.9,70.0,61,30.00,10.0,SW,4.6,-,N/A,,Mostly Cloudy,220,2013-08-29 00:53:00
8:03 PM,84.2,69.8,62,30.01,10.0,SW,4.6,-,N/A,,Scattered Clouds,220,2013-08-29 01:03:00
8:53 PM,78.1,71.1,79,30.01,10.0,Calm,Calm,-,N/A,,Clear,0,2013-08-29 01:53:00
9:53 PM,78.1,71.1,79,30.02,10.0,Calm,Calm,-,N/A,,Clear,0,2013-08-29 02:53:00
10:53 PM,75.9,70.0,82,30.03,10.0,Calm,Calm,-,N/A,,Clear,0,2013-08-29 03:53:00
11:53 PM,77.0,69.1,76,30.02,10.0,Calm,Calm,-,N/A,,Clear,0,2013-08-29 04:53:00